Cloud_Cover
0 1 10 1 1 0 0 0 0 0 0 0 0 0 0 0 0 0 0 0 0 0 0 0 0 0 0 0 0 0 0 0 0 0 0 0 0 0 0 0 0 0 0 0 0
0 0 2 8 0 0 0 0 0 0 0 0 0 0 0 0 0 0 0 0 0 0 0 0 0 0 0 0 0 0 0 0 0 0 0 0 0 0 0 0 0 0 0 0 0
0 0 0 0 0 0 0 0 0 0 0 0 0 0 0 0 0 0 0 0 0 0 0 0 0 0 0 0 0 0 0 0 0 0 0 0 0 0 0 0 0 0 0 0 0
0 0 0 0 0 0 0 0 0 0 0 0 0 0 0 0 0 0 0 0 0 0 0 0 0 0 0 0 0 0 0 0 0 0 0 0 0 0 0 0 0 0 2 0 0
0 0 0 0 0 0 0 0 0 0 0 0 0 0 0 0 0 0 0 0 0 0 0 0 0 0 0 0 0 0 0 0 0 0 0 0 0 0 0 0 0 0 2 5 0
0 0 0 0 0 0 0 0 0 0 0 0 0 0 0 0 0 0 0 0 0 0 0 0 0 0 0 0 0 0 0 0 0 0 0 0 0 0 0 0 0 0 0 5 0
0 0 0 0 0 0 0 0 0 0 0 0 0 0 0 0 0 0 0 0 0 0 0 0 0 0 0 0 0 0 0 0 0 0 0 0 0 0 0 0 0 0 0 0 0
0 0 0 0 0 0 0 0 0 0 0 0 0 0 0 0 0 0 0 0 0 0 0 0 0 0 0 0 0 0 0 0 0 0 0 0 0 0 0 0 0 0 0 0 0
0 0 0 0 0 0 0 0 0 0 0 0 0 0 0 0 0 0 0 0 0 0 0 0 0 0 0 0 0 0 0 0 0 0 0 0 0 0 0 0 0 0 0 0 0
0 0 0 0 0 0 0 0 0 0 0 0 0 0 0 0 0 0 0 0 0 0 0 0 0 0 0 0 0 0 0 0 0 0 0 0 0 0 4 3 0 0 0 0 0
0 0 0 0 0 0 0 0 0 0 0 0 0 0 0 0 0 0 0 0 0 0 0 0 4 1 5 5 1 0 0 5 5 5 0 0 0 5 92 98 5 5 1 0 0
0 0 0 0 0 0 0 0 0 0 0 0 0 0 1 1 4 1 0 0 0 0 0 0 5 5 4 5 0 3 0 0 0 0 0 0 0 4 80 82 7 4 3 0 3
0 0 0 0 0 0 0 0 0 0 0 2 5 0 5 5 5 5 2 4 4 5 5 5 5 5 2 5 2 0 0 0 0 0 0 0 0 0 2 0 0 0 3 0 0
0 0 0 0 0 0 0 0 0 0 0 0 5 5 5 5 5 5 5 5 5 5 3 5 5 5 5 9 6 4 1 0 0 0 0 7 1 0 5 1 1 4 3 0 4
0 0 0 0 0 0 0 0 0 0 0 2 5 5 10 42 6 5 5 14 5 4 4 28 17 34 71 47 5 5 4 2 0 0 0 35 2 0 5 1 81 64 4 2 5
0 0 0 0 0 0 0 0 0 0 1 5 8 14 83 56 5 5 58 73 35 5 5 5 18 14 5 5 5 5 4 1 0 0 0 0 3 0 19 40 79 100 6 19 99
0 0 0 0 0 0 0 0 2 5 9 64 69 97 54 5 6 5 5 5 5 4 5 6 5 6 0 0 0 2 48 49 12 5 2 1 12 99 50 43 100 82 29 95 100
0 0 0 0 0 0 0 5 49 96 100 75 26 8 5 5 5 19 25 5 5 3 0 0 5 10 5 0 0 0 5 20 46 18 4 0 0 7 9 49 63 100 100 100 100
17 0 0 0 0 3 4 7 30 98 49 5 5 4 15 5 24 55 56 53 5 8 66 31 5 5 18 0 2 0 3 0 5 4 5 0 0 5 9 21 93 100 72 11 8
0 0 1 4 5 6 27 8 5 24 18 5 5 18 19 64 6 11 11 5 5 91 82 47 25 11 2 1 4 38 24 12 1 99 98 62 82 100 100 79 99 100 98 80 97
0 0 14 4 5 5 5 5 5 5 5 5 34 40 82 72 28 20 6 4 5 13 5 25 64 3 4 4 5 10 63 87 100 92 100 87 20 53 100 100 100 97 97 100 100
0 2 0 5 5 5 5 5 5 5 50 89 100 100 87 56 19 55 40 46 10 5 5 28 100 63 5 5 5 5 53 98 100 24 100 100 100 100 85 93 100 100 100 100 69
3 14 32 5 22 83 51 18 97 90 100 100 100 100 81 12 49 5 5 48 28 5 82 39 26 45 11 1 4 1 7 98 84 50 55 100 100 100 100 98 33 100 100 31 81
3 44 62 5 27 60 64 80 95 100 100 100 99 54 44 74 11 87 25 6 94 20 5 49 13 6 80 5 5 44 5 9 100 100 73 99 70 100 100 100 100 100 100 100 100
51 90 94 32 91 78 55 92 76 100 44 6 8 13 35 69 7 5 5 92 65 79 84 93 70 18 5 5 5 44 10 24 99 25 100 6 91 98 100 100 60 87 32 100 26
28 62 98 95 100 100 57 65 74 69 78 82 60 47 58 5 48 77 5 78 5 5 5 94 66 70 5 1 5 66 5 34 37 57 66 97 62 93 5 90 54 25 100 100 100
94 32 23 56 94 17 5 53 97 93 5 5 94 69 38 5 69 6 47 14 6 5 5 98 100 86 49 52 17 2 12 26 36 99 78 100 100 100 77 100 100 100 100 100 93